Location: Newark
(41.9000°N, 12.4833°E)
Time: 23:30:02
(UTC+00:00)

EO-79 - Pass Details

Date: 24 May 2019
Orbit: 591 x 611 km, 97.9° (Epoch: 15 June)

Event Time Altitude Azimuth Distance (km) Brightness Sun altitude
Rises 23:46:28 0° 11° (N) 2,840 ? -26.6°
Reaches altitude 10° 23:48:39 10° 10° (N) 1,932 ? -26.5°
Enters shadow 23:52:06 59° 357° (N) 689 ? -26.4°
